Thermal, CA

10:17 PM PDT on July 26, 2017 (GMT -0700)
Desert Resorts Regional

Weather History for KTRM - October, 2011

Change the Weather History Date:

Monday, October 17, 2011

  Actual Average Record
Temperature  
Mean Temperature 84 °F 72 °F  
Max Temperature 103 °F 90 °F 103 °F (1959)
Min Temperature 65 °F 55 °F 37 °F (1994)
Degree Days  
Heating Degree Days 0 0  
Month to date heating degree days 0 0  
Since 1 July heating degree days 0 0  
Cooling Degree Days 19 8  
Month to date cooling degree days 212 178  
Year to date cooling degree days 3695 3576  
Growing Degree Days 34 (Base 50)    
Moisture  
Dew Point 43 °F    
Average Humidity 28    
Maximum Humidity 47    
Minimum Humidity 8    
Precipitation  
Precipitation 0.00 in 0.01 in 1.70 in (2005)
Month to date precipitation T 0.13  
Year to date precipitation 1.58 2.52  
Since 1 July precipitation 0.66  
Snow  
Snow 0.00 in - - ()
Month to date snowfall 0.0  
Year to date snowfall 0.0  
Snow Depth 0.00 in    
Sea Level Pressure  
Sea Level Pressure 29.90 in    
Wind  
Wind Speed 6 mph (NNW)    
Max Wind Speed 16 mph    
Max Gust Speed 21 mph    
Visibility 10 miles    
Events      
T = Trace of Precipitation, MM = Missing Value Source: NWS Daily Summary

Daily Weather History Graph

Daily Weather History Graph

Search for Another Location

Airport or City:

Trip Planner

Search our weather history database for the weather conditions in past years. The results will help you decide how hot, cold, wet, or windy it might be!

Date:

Astronomy

Oct. 17, 2011 Rise Set
Actual Time 6:50 AM PDT 6:08 PM PDT
Civil Twilight 6:25 AM PDT 6:33 PM PDT
Nautical Twilight 5:56 AM PDT 7:02 PM PDT
Astronomical Twilight 5:27 AM PDT 7:31 PM PDT
Moon 10:05 PM PDT (10/17) 11:48 AM PDT (10/17)
Length of Visible Light 12h 08m
Length of Day
11h 17m
Waning Gibbous, 73% of the Moon is Illuminated
Oct 17
Waning Gibbous
Oct 19
Last Quarter
Oct 26
New
Nov 2
First Quarter
Nov 10
Full

Hourly Weather History & Observations

Time (PDT) Temp. Dew Point Humidity Pressure Visibility Wind Dir Wind Speed Gust Speed Precip Events Conditions
12:52 AM 82.9 °F 45.0 °F 26% 29.87 in 10.0 mi NNW 10.4 mph - N/A   Clear
1:52 AM 84.9 °F 37.9 °F 19% 29.87 in 10.0 mi NNW 13.8 mph - N/A   Clear
3:52 AM 81.0 °F 39.9 °F 23% 29.87 in 10.0 mi NW 6.9 mph - N/A   Clear
5:52 AM 66.9 °F 43.0 °F 42% 29.90 in 10.0 mi SE 3.5 mph - N/A   Clear
6:52 AM 71.1 °F 44.1 °F 38% 29.91 in 10.0 mi North 5.8 mph - N/A   Clear
7:52 AM 70.0 °F 48.0 °F 46% 29.94 in 10.0 mi Calm Calm - N/A   Clear
8:52 AM 82.9 °F 48.0 °F 29% 29.95 in 10.0 mi North 4.6 mph - N/A   Clear
9:52 AM 89.1 °F 41.0 °F 19% 29.98 in 10.0 mi NNW 9.2 mph - N/A   Clear
10:52 AM 93.0 °F 39.9 °F 16% 29.95 in 10.0 mi Variable 4.6 mph - N/A   Clear
11:52 AM 97.0 °F 36.0 °F 12% 29.93 in 10.0 mi NW 4.6 mph - N/A   Clear
12:52 PM 100.0 °F 34.0 °F 10% 29.90 in 10.0 mi West 5.8 mph - N/A   Clear
1:52 PM 102.0 °F 30.0 °F 8% 29.88 in 10.0 mi West 5.8 mph - N/A   Clear
2:52 PM 102.0 °F 33.1 °F 9% 29.86 in 10.0 mi Variable 3.5 mph - N/A   Clear
3:52 PM 102.0 °F 34.0 °F 9% 29.85 in 10.0 mi West 4.6 mph - N/A   Clear
6:52 PM 82.0 °F 50.0 °F 33% 29.85 in 10.0 mi East 4.6 mph - N/A   Clear
7:52 PM 75.9 °F 51.1 °F 42% 29.86 in 10.0 mi Calm Calm - N/A   Clear
8:52 PM 78.1 °F 48.0 °F 35% 29.88 in 10.0 mi NW 5.8 mph - N/A   Clear
9:52 PM 80.1 °F 48.9 °F 34% 29.89 in 10.0 mi NNW 5.8 mph - N/A   Clear
10:52 PM 81.0 °F 50.0 °F 34% 29.92 in 10.0 mi North 5.8 mph - N/A   Clear
11:52 PM 75.9 °F 50.0 °F 40% 29.92 in 10.0 mi Calm Calm - N/A   Clear